This is the latest recevied weather packets stored in our database for station/object CALDNA-WX. If no packets are shown the sender has not sent any weather packets the latest 10 day(s).
| Time | Temp. | Humidity | Pressure | Rain* | Wind** | Luminosity | Snow |
|---|---|---|---|---|---|---|---|
| 1777778121 | 3.33° C | 66% | 988.3 hPa | 0 mm | - | - | - |
| 1777777247 | 3.33° C | 66% | 988.3 hPa | 0 mm | - | - | - |
| 1777776321 | 3.89° C | 59% | 989.2 hPa | 0 mm | - | - | - |
| 1777775441 | 3.89° C | 63% | 988.7 hPa | 0 mm | - | - | - |
| 1777774522 | 3.89° C | 63% | 988.7 hPa | 0 mm | - | - | - |
| 1777773647 | 4.44° C | 63% | 988.7 hPa | 0 mm | - | - | - |
| 1777772721 | 4.44° C | 52% | 988.2 hPa | 0 mm | - | - | - |
| 1777771839 | 5° C | 52% | 988.2 hPa | 0 mm | - | - | - |
| 1777770921 | 5° C | 52% | 988.2 hPa | 0 mm | - | - | - |
| 1777770045 | 5.56° C | 52% | 988.2 hPa | 0 mm | - | - | - |
| 1777769121 | 6.11° C | 41% | 989 hPa | 0 mm | - | - | - |
| 1777768235 | 6.67° C | 41% | 989.2 hPa | 0 mm | - | - | - |
| 1777767322 | 7.22° C | 41% | 989.2 hPa | 0 mm | - | - | - |
| 1777766445 | 7.78° C | 41% | 989.2 hPa | 0 mm | - | - | - |
| 1777765522 | 8.33° C | 36% | 989 hPa | 0 mm | - | - | - |
| 1777764634 | 8.33° C | 35% | 989.1 hPa | 0 mm | - | - | - |
| 1777763722 | 8.33° C | 35% | 989.1 hPa | 0 mm | - | - | - |
| 1777762847 | 8.89° C | 35% | 989.1 hPa | 0 mm | - | - | - |
| 1777761922 | 8.89° C | 36% | 989.4 hPa | 0 mm | - | - | - |
| 1777761040 | 8.89° C | 35% | 990.2 hPa | 0 mm | - | - | - |
| 1777760122 | 8.89° C | 35% | 990.2 hPa | 0 mm | - | - | - |
| 1777759245 | 8.89° C | 35% | 990.2 hPa | 0 mm | - | - | - |
| 1777758322 | 8.89° C | 36% | 990.2 hPa | 0 mm | - | - | - |
| 1777757440 | 8.89° C | 38% | 989.9 hPa | 0 mm | - | - | - |
| 1777756522 | 8.89° C | 38% | 989.9 hPa | 0 mm | - | - | - |
* Rain latest hour (hover to see other rain measurements)
** Current wind speed in m/s (hover to see current wind gust speed)